Location: Franzen
(48.6167°N, 15.3833°E)
Time: 02:52:34
(UTC+00:00)

Cosmos 1655 Rocket - Pass Details

Date: 29 July 2021
Orbit: 969 x 1007 km, 82.9° (Epoch: 18 September)

Event Time Altitude Azimuth Distance (km) Brightness Sun altitude
Exits shadow 22:12:43 19° 224° (SW) 2,209 5.6 -21.9°
Maximum altitude 22:17:03 44° 287° (WNW) 1,372 4.9 -22.0°
Drops below altitude 10° 22:23:09 10° 359° (N) 2,795 7.5 -22.2°
Sets 22:25:51 0° 6° (N) 3,750 8.4 -22.3°
